| time (UTC) | temp C | wind direction | speed KPH | gust KPH | rain 1hr cm | rain 24hr cm | rain mn cm | humidity % | barometer mb |
| 20260504013102 | 10 | 0 | 0.0 | 1.6 | 0.00 | 0.00 | 0.00 | 64 | 1011.3 |
| 20260504011557 | 10 | 40 | 0.0 | 3.2 | 0.00 | 0.00 | 0.00 | 58 | 1011.2 |
| 20260504010113 | 11 | 0 | 0.0 | 4.8 | 0.00 | 0.00 | 0.00 | 56 | 1011.2 |
| 20260504004558 | 11 | 355 | 0.0 | 4.8 | 0.00 | 0.00 | 0.00 | 52 | 1011.1 |
| 20260504003055 | 12 | 0 | 0.0 | 8.0 | 0.00 | 0.00 | 0.00 | 50 | 1011.1 |
| 20260504001610 | 12 | 360 | 1.6 | 8.0 | 0.00 | 0.00 | 0.00 | 50 | 1011.2 |
| 20260504000059 | 12 | 321 | 1.6 | 12.9 | 0.00 | 0.00 | 0.00 | 47 | 1011.1 |
| 20260503234554 | 12 | 11 | 1.6 | 6.4 | 0.00 | 0.00 | 0.00 | 47 | 1011.1 |
| 20260503233055 | 12 | 103 | 0.0 | 8.0 | 0.00 | 0.00 | 0.00 | 45 | 1011.0 |
| 20260503231600 | 13 | 355 | 4.8 | 17.7 | 0.00 | 0.00 | 0.00 | 43 | 1010.9 |
| 20260503230059 | 13 | 9 | 6.4 | 24.1 | 0.00 | 0.00 | 0.00 | 42 | 1011.1 |
| 20260503224558 | 14 | 159 | 8.0 | 22.5 | 0.00 | 0.00 | 0.00 | 40 | 1011.1 |
| 20260503223057 | 14 | 17 | 3.2 | 8.0 | 0.00 | 0.00 | 0.00 | 43 | 1011.2 |
| 20260503221556 | 13 | 24 | 3.2 | 19.3 | 0.00 | 0.00 | 0.00 | 44 | 1011.2 |
| 20260503214559 | 15 | 135 | 8.0 | 22.5 | 0.00 | 0.00 | 0.00 | 40 | 1011.1 |
| 20260503213133 | 14 | 74 | 3.2 | 19.3 | 0.00 | 0.00 | 0.00 | 42 | 1011.0 |
| 20260503211621 | 15 | 300 | 9.7 | 30.6 | 0.00 | 0.00 | 0.00 | 40 | 1010.9 |
| 20260503210100 | 15 | 244 | 4.8 | 16.1 | 0.00 | 0.00 | 0.00 | 41 | 1011.1 |
| 20260503204619 | 14 | 157 | 4.8 | 25.7 | 0.00 | 0.00 | 0.00 | 41 | 1011.2 |
| 20260503203109 | 13 | 334 | 4.8 | 17.7 | 0.00 | 0.00 | 0.00 | 41 | 1011.3 |
| 20260503201559 | 13 | 355 | 4.8 | 16.1 | 0.00 | 0.00 | 0.00 | 45 | 1011.4 |
| 20260503200059 | 14 | 19 | 4.8 | 25.7 | 0.00 | 0.00 | 0.00 | 45 | 1011.7 |
| 20260503194557 | 13 | 360 | 3.2 | 14.5 | 0.00 | 0.00 | 0.00 | 47 | 1011.9 |
| 20260503193059 | 13 | 37 | 4.8 | 20.9 | 0.00 | 0.00 | 0.00 | 45 | 1012.2 |
| 20260503191605 | 13 | 329 | 4.8 | 19.3 | 0.00 | 0.00 | 0.00 | 47 | 1012.4 |
| 20260503190057 | 13 | 337 | 6.4 | 17.7 | 0.00 | 0.00 | 0.00 | 46 | 1012.6 |
| 20260503184634 | 13 | 40 | 6.4 | 17.7 | 0.00 | 0.00 | 0.00 | 45 | 1012.8 |
| 20260503183107 | 13 | 343 | 6.4 | 16.1 | 0.00 | 0.00 | 0.00 | 43 | 1012.9 |
| 20260503181556 | 13 | 41 | 4.8 | 17.7 | 0.00 | 0.00 | 0.00 | 45 | 1013.0 |
| 20260503180058 | 13 | 350 | 9.7 | 19.3 | 0.00 | 0.00 | 0.00 | 46 | 1013.2 |
| 20260503174616 | 13 | 344 | 3.2 | 19.3 | 0.00 | 0.00 | 0.00 | 46 | 1013.4 |
| 20260503173130 | 12 | 30 | 6.4 | 20.9 | 0.00 | 0.00 | 0.00 | 46 | 1013.5 |
| 20260503171559 | 12 | 208 | 3.2 | 25.7 | 0.00 | 0.00 | 0.00 | 46 | 1013.6 |
| 20260503150114 | 10 | 126 | 1.6 | 12.9 | 0.00 | 0.00 | 0.00 | 50 | 1014.5 |
| 20260503100107 | -2 | 0 | 0.0 | 0.0 | 0.00 | 0.03 | 0.00 | 87 | 1014.1 |
| 20260503090106 | -2 | 0 | 0.0 | 0.0 | 0.00 | 0.03 | 0.00 | 85 | 1014.0 |
| 20260503081600 | -2 | 0 | 0.0 | 0.0 | 0.00 | 0.03 | 0.00 | 85 | 1013.9 |
| 20260503071610 | -1 | 0 | 0.0 | 0.0 | 0.00 | 0.03 | 0.00 | 83 | 1013.8 |
| 20260503070114 | -1 | 0 | 0.0 | 0.0 | 0.00 | 0.03 | 0.00 | 82 | 1013.7 |
| 20260503060116 | 0 | 0 | 0.0 | 0.0 | 0.00 | 0.03 | 0.00 | 82 | 1013.9 |
| 20260503054601 | 1 | 0 | 0.0 | 0.0 | 0.00 | 0.03 | 0.00 | 83 | 1013.9 |
| 20260503053058 | 1 | 0 | 0.0 | 0.0 | 0.00 | 0.03 | 0.00 | 83 | 1014.0 |
| 20260503051559 | 1 | 0 | 0.0 | 0.0 | 0.00 | 0.03 | 0.00 | 83 | 1014.0 |
| 20260503044556 | 1 | 0 | 0.0 | 0.0 | 0.00 | 0.03 | 0.00 | 82 | 1014.2 |
| 20260503043059 | 1 | 0 | 0.0 | 0.0 | 0.00 | 0.03 | 0.00 | 82 | 1014.3 |
| 20260503041556 | 1 | 0 | 0.0 | 0.0 | 0.00 | 0.03 | 0.00 | 82 | 1014.2 |
| 20260503040057 | 1 | 0 | 0.0 | 0.0 | 0.00 | 0.03 | 0.00 | 82 | 1014.3 |
| 20260503034557 | 1 | 0 | 0.0 | 0.0 | 0.00 | 0.03 | 0.03 | 81 | 1014.3 |
| 20260503033100 | 1 | 0 | 0.0 | 0.0 | 0.00 | 0.03 | 0.03 | 81 | 1014.3 |
| 20260503031557 | 1 | 0 | 0.0 | 0.0 | 0.00 | 0.03 | 0.03 | 81 | 1014.5 |
| 20260503030058 | 1 | 0 | 0.0 | 0.0 | 0.00 | 0.03 | 0.03 | 80 | 1014.5 |
| 20260503024600 | 1 | 0 | 0.0 | 0.0 | 0.00 | 0.03 | 0.03 | 79 | 1014.6 |
| 20260503023055 | 2 | 0 | 0.0 | 0.0 | 0.00 | 0.03 | 0.03 | 79 | 1014.7 |
| 20260503021558 | 2 | 0 | 0.0 | 0.0 | 0.00 | 0.03 | 0.03 | 79 | 1014.7 |
| 20260503020105 | 2 | 0 | 0.0 | 3.2 | 0.00 | 0.03 | 0.03 | 77 | 1014.7 |
| 20260503014628 | 2 | 0 | 0.0 | 3.2 | 0.00 | 0.03 | 0.03 | 76 | 1014.6 |